Vertical_Velocity
-0 -1 -2 -1 -4 -1 -3 -4 -4 4 9 -0 3 -2 8 -1 -2 -5 1 0 -0 0 -4 -1 1 2 3 3 -6 0 -0 -2 -3 2 1 -3 -0 -1 -0 0 0 1 -1 -0 -2 -0 -1
-3 -0 2 -1 -2 0 -2 -2 0 -3 -3 12 -0 6 3 9 2 -3 1 0 -1 -2 -0 -2 2 3 2 0 -1 7 1 2 -1 1 -0 2 -2 -0 -1 -1 -0 1 1 -2 -2 -3 1
-1 -4 -5 -3 -1 -4 -2 -2 0 1 2 2 6 4 4 6 6 -2 -1 -2 1 -2 -2 -3 1 1 2 -25 -0 3 3 3 0 4 -0 1 -0 0 2 0 2 -0 -0 -1 -1 -3 -2
-1 -1 -0 -2 -6 0 -6 -1 -1 -0 -0 -3 8 -1 9 13 9 2 -3 1 1 5 5 1 -0 2 -13 -2 -1 -0 1 -2 3 0 2 2 0 0 -1 0 -2 1 1 -1 -4 1 -6
-6 -4 -0 -4 -0 -3 4 -3 -2 -3 -3 3 -4 9 3 5 11 3 -1 -1 3 1 -1 3 -0 1 -11 0 1 3 3 -2 -1 1 -0 2 1 -0 4 -0 -2 2 -1 1 -5 0 -0
1 -6 -4 -6 -4 2 -5 -2 -8 -3 -2 -3 8 -5 2 5 15 13 5 4 7 -0 -0 1 2 3 3 -1 2 2 4 4 -1 2 1 4 1 0 2 1 -4 -2 1 0 -1 -2 -1
-2 -6 -5 -1 -4 -3 -1 -1 -2 2 1 3 -3 3 -3 2 7 14 -2 -4 2 3 2 -11 -4 1 1 2 2 3 0 3 0 3 -1 1 2 -2 -7 -2 -1 0 1 1 -2 -4 5
-3 -3 3 -9 -14 -9 -7 1 -7 -3 -4 -1 5 -3 -3 6 13 23 4 -10 -12 -3 -2 -7 3 -1 4 1 -0 1 2 -3 -1 -1 1 2 -2 -5 -0 1 1 1 1 -5 -4 -1 11
4 1 -2 3 -5 -5 -4 4 2 -2 1 0 4 2 -5 8 25 16 -12 7 2 -7 -1 -4 -2 0 -5 2 -2 -3 -1 1 -2 1 -0 -1 -4 1 2 1 3 -0 0 -1 1 -3 -4
-2 -3 6 -5 -1 -1 -2 1 2 -2 0 7 1 -0 -0 4 83 -7 6 -9 1 -9 -7 -8 0 -2 4 0 -4 -2 5 -9 2 -6 -1 -2 -5 0 1 0 -0 5 -2 1 1 3 -3
-2 2 -2 -7 1 -5 2 1 1 -1 -0 27 -7 6 -13 21 38 11 -23 4 -2 -7 -8 -4 2 6 -1 -11 2 4 -3 5 -2 -2 1 -12 -0 1 4 -11 -0 -6 -0 -1 0 1 5
-2 -1 -1 -3 -2 1 0 4 -8 12 -1 -5 -12 4 8 1 43 7 -15 -0 -4 -22 -17 1 1 1 4 2 2 2 0 7 2 1 2 -4 -0 -1 -5 -1 -1 -1 2 1 1 2 8
0 -3 1 -4 3 -3 -5 8 -5 -4 -10 17 -2 -1 10 6 23 -3 6 -7 -12 -6 -4 3 -0 1 -1 1 2 -0 1 5 -2 3 2 1 -4 1 0 2 3 5 4 0 6 8 -6
-1 1 1 -3 2 2 4 -3 2 -17 -6 -3 -4 3 -15 -10 -11 25 -3 -4 -5 -6 -2 0 -1 2 -1 -2 -0 1 3 2 3 1 0 0 -9 -0 -2 -8 -8 -3 -6 -3 -3 -0 -3
1 1 1 -2 3 -4 -2 -5 -4 8 -5 -2 2 4 10 -31 20 10 2 2 -12 -3 -6 -3 6 1 2 1 -0 1 0 -1 -3 -4 -2 0 -5 -2 0 -1 -2 1 3 -17 3 -1 3
2 2 -1 2 1 -2 -1 0 3 8 2 -7 17 5 -7 -23 57 2 1 -4 -1 -2 -2 0 -3 -3 -1 -0 2 2 0 -5 -3 -5 -1 -2 -0 -1 -2 3 -2 -6 -0 7 5 1 0
1 4 -2 3 -2 0 1 -4 1 1 -2 16 11 3 -1 -35 -13 16 -3 -2 -0 2 -7 -5 -1 -1 -1 -1 -2 -1 -4 -6 0 0 0 -2 3 -1 4 -1 -7 8 3 2 1 -1 -4
3 2 -2 1 2 -2 -1 -2 -2 4 -8 -1 2 2 7 -4 4 0 -1 -4 -1 1 0 0 -2 -1 -2 -0 0 1 -3 -2 0 -4 -1 -6 -1 -0 -16 -4 -3 -4 -5 -3 1 -5 -1
4 -2 1 0 -1 -2 -3 1 -2 1 13 9 -4 3 56 -11 -2 2 2 1 -1 -0 -0 1 -0 -2 -1 -1 -2 -0 -0 -5 0 -1 -7 -2 -1 1 -3 4 4 2 -3 -2 -0 1 -4
-2 -1 3 -5 2 1 -3 -3 1 7 -3 32 -2 2 19 16 0 -5 -1 1 1 1 1 -0 -2 -2 1 2 0 -1 -1 -2 1 -1 -1 2 1 -3 -6 -5 -2 3 1 0 -1 5 -9
-5 -1 5 0 2 2 -5 -6 -9 12 -16 3 3 3 -3 1 3 0 -2 -2 0 -0 -0 1 3 0 -3 1 1 -1 0 -1 4 -3 2 1 1 4 -5 -3 2 -2 -2 -0 4 -10 1
-3 -6 4 0 3 -1 -5 -5 5 -1 10 15 3 -2 1 0 3 1 -0 1 -3 1 -0 0 2 -1 1 1 -4 -1 0 -0 -6 4 1 0 -3 2 -2 -0 2 2 -0 0 -0 -1 4
-1 -7 3 1 2 -2 2 2 -2 3 -0 -5 -2 1 4 -1 2 1 -5 -1 -3 -2 -1 1 -4 3 3 -9 -3 -10 -1 -1 -0 0 -1 1 1 1 -4 1 2 10 -13 -3 -2 0 -6
3 -6 -2 -1 3 -3 -2 -6 -3 8 12 8 -2 9 2 1 0 -5 -1 -0 -0 -1 -2 -0 4 3 -2 5 -2 3 5 2 3 -3 -3 -1 1 1 -2 1 4 -2 -1 -5 -5 -3 0
2 2 -4 -7 2 1 -3 -2 -2 4 3 6 1 4 6 0 -4 5 2 -1 2 1 0 1 -7 -8 2 -0 1 1 1 0 -3 -1 2 0 -1 -1 2 1 -5 -4 -1 -3 -7 -12 -4
-2 -0 6 -3 -2 2 -4 -4 1 7 8 0 2 -2 3 -3 -6 -4 -1 -2 -1 -0 0 -1 -1 1 2 1 1 1 -1 -0 -4 -3 -0 1 1 1 -1 2 1 -1 -1 0 -2 -5 -4
-5 -3 -1 -3 -3 3 1 -0 -0 1 -0 -0 -1 -1 7 -1 8 0 -3 -5 -0 0 -0 -0 0 -1 3 0 1 -0 -1 -2 -2 0 -0 1 1 -1 -1 0 -6 -1 -0 -1 -4 -11 1
-2 -7 2 1 -4 -1 -6 3 -2 -2 -3 5 -4 -3 14 1 -1 3 -3 -4 1 1 -2 1 -1 4 2 3 1 -1 1 -4 1 -3 -3 -4 -2 -1 -1 1 -4 -0 -1 -1 -7 -2 1
1 -1 0 1 2 -4 -1 -5 -6 -7 6 -0 -3 10 4 1 -1 2 1 1 2 2 -2 1 -2 -1 -3 2 1 1 1 1 -2 -2 0 -3 -7 -5 -8 -9 -2 -1 -1 -0 1 2 0
Height
1499 1495 1491 1488 1483 1479 1476 1473 1471 1468 1467 1467 1468 1468 1468 1469 1469 1469 1468 1468 1469 1470 1472 1473 1474 1474 1476 1476 1474 1473 1473 1474 1475 1478 1481 1485 1487 1488 1489 1487 1486 1486 1484 1484 1484 1485 1484
1497 1494 1490 1486 1482 1478 1474 1470 1467 1466 1464 1462 1462 1463 1464 1465 1466 1467 1466 1466 1467 1469 1470 1472 1473 1473 1474 1474 1472 1473 1473 1474 1475 1478 1480 1482 1484 1485 1487 1486 1486 1482 1482 1482 1481 1481 1481
1496 1492 1488 1484 1480 1475 1471 1467 1463 1461 1460 1457 1457 1458 1459 1460 1462 1463 1463 1464 1465 1467 1469 1471 1472 1472 1472 1468 1468 1469 1472 1474 1475 1478 1479 1481 1483 1485 1485 1484 1483 1481 1482 1479 1478 1477 1477
1495 1491 1487 1482 1477 1474 1469 1464 1460 1457 1454 1452 1450 1451 1453 1456 1457 1459 1461 1462 1464 1465 1468 1469 1471 1471 1468 1464 1464 1467 1469 1472 1475 1476 1479 1480 1481 1483 1483 1482 1481 1481 1480 1483 1473 1471 1474
1493 1489 1485 1480 1475 1471 1467 1462 1457 1453 1450 1448 1446 1445 1447 1450 1453 1455 1457 1460 1462 1464 1466 1468 1470 1470 1465 1462 1461 1464 1467 1470 1473 1475 1477 1480 1481 1481 1482 1483 1484 1480 1484 1481 1477 1469 1470
1490 1486 1482 1477 1473 1468 1464 1459 1453 1449 1446 1443 1441 1439 1440 1444 1447 1449 1453 1458 1460 1462 1464 1467 1468 1472 1461 1460 1459 1461 1464 1469 1472 1474 1478 1479 1480 1481 1481 1483 1487 1480 1478 1473 1473 1469 1469
1488 1483 1479 1474 1469 1464 1459 1454 1449 1445 1441 1438 1435 1433 1434 1437 1442 1443 1448 1454 1462 1463 1461 1456 1458 1456 1456 1458 1459 1460 1462 1467 1471 1474 1477 1477 1479 1473 1473 1475 1475 1475 1478 1478 1474 1469 1470
1485 1480 1476 1470 1465 1460 1454 1449 1444 1439 1435 1432 1430 1427 1428 1431 1435 1434 1441 1444 1450 1454 1455 1453 1453 1455 1456 1456 1458 1460 1462 1467 1470 1474 1476 1478 1472 1472 1472 1474 1475 1475 1475 1473 1473 1469 1467
1481 1477 1471 1466 1461 1456 1450 1444 1439 1434 1429 1425 1423 1422 1422 1423 1424 1425 1432 1441 1446 1450 1453 1448 1446 1449 1452 1457 1457 1458 1461 1464 1467 1473 1474 1473 1466 1463 1470 1473 1476 1477 1476 1477 1476 1471 1465
1477 1472 1466 1461 1456 1450 1444 1438 1432 1427 1423 1419 1416 1415 1415 1420 1420 1413 1426 1435 1443 1449 1464 1447 1445 1443 1446 1453 1454 1453 1457 1461 1467 1469 1473 1471 1465 1467 1470 1472 1475 1473 1471 1471 1472 1476 1480
1473 1468 1462 1456 1450 1444 1438 1432 1425 1421 1416 1411 1410 1409 1410 1414 1411 1408 1420 1430 1440 1449 1480 1443 1443 1443 1443 1448 1448 1450 1454 1459 1464 1466 1468 1464 1464 1466 1467 1468 1471 1467 1466 1469 1469 1470 1472
1469 1463 1457 1451 1445 1439 1433 1426 1420 1415 1409 1405 1402 1401 1403 1404 1403 1405 1414 1431 1440 1462 1473 1440 1439 1440 1444 1446 1446 1450 1454 1457 1458 1461 1460 1460 1461 1463 1464 1463 1465 1465 1469 1468 1468 1466 1463
1465 1459 1452 1446 1440 1435 1428 1422 1416 1408 1402 1398 1394 1393 1395 1400 1402 1401 1412 1425 1446 1457 1434 1436 1435 1437 1438 1442 1445 1447 1452 1454 1455 1460 1459 1455 1454 1455 1458 1462 1462 1465 1469 1467 1460 1459 1450
1462 1455 1448 1441 1435 1429 1423 1417 1412 1403 1395 1387 1384 1386 1386 1391 1398 1394 1410 1421 1440 1424 1431 1428 1430 1436 1438 1439 1442 1445 1448 1450 1452 1455 1456 1459 1458 1447 1449 1450 1453 1456 1458 1460 1458 1444 1453
1458 1451 1444 1438 1432 1426 1420 1413 1407 1398 1386 1377 1376 1381 1384 1390 1394 1393 1408 1414 1414 1416 1419 1426 1433 1436 1439 1440 1442 1445 1445 1443 1442 1450 1454 1453 1455 1444 1442 1443 1449 1452 1454 1445 1446 1441 1448
1455 1447 1440 1434 1428 1422 1417 1410 1403 1395 1382 1377 1377 1378 1381 1388 1389 1399 1404 1409 1410 1410 1415 1421 1424 1428 1433 1437 1442 1443 1440 1434 1435 1437 1443 1448 1447 1443 1442 1443 1444 1446 1447 1446 1448 1448 1451
1451 1444 1437 1431 1424 1419 1413 1407 1400 1393 1382 1376 1378 1382 1383 1389 1394 1399 1402 1407 1408 1408 1411 1418 1421 1426 1423 1427 1433 1436 1435 1431 1430 1434 1440 1446 1448 1445 1444 1437 1433 1443 1443 1445 1437 1439 1448
1448 1441 1435 1428 1422 1416 1411 1405 1398 1391 1384 1380 1375 1373 1376 1386 1397 1400 1404 1402 1403 1408 1411 1414 1416 1417 1423 1430 1436 1441 1435 1431 1427 1430 1439 1440 1440 1438 1432 1426 1425 1424 1425 1432 1432 1442 1433
1445 1439 1432 1426 1420 1415 1409 1402 1396 1390 1386 1381 1378 1376 1378 1385 1390 1395 1399 1400 1402 1408 1411 1413 1416 1417 1419 1425 1432 1432 1429 1420 1424 1427 1429 1434 1434 1429 1427 1426 1423 1421 1420 1420 1422 1424 1426
1443 1436 1430 1425 1419 1413 1407 1400 1393 1385 1377 1372 1375 1374 1385 1390 1390 1391 1397 1401 1404 1405 1408 1411 1414 1417 1421 1422 1425 1424 1426 1418 1419 1422 1425 1427 1426 1421 1413 1409 1412 1411 1413 1414 1418 1419 1410
1441 1433 1428 1423 1417 1412 1406 1400 1388 1382 1377 1375 1374 1377 1381 1388 1391 1393 1395 1400 1405 1406 1408 1410 1412 1414 1417 1418 1418 1422 1420 1418 1420 1420 1424 1424 1415 1413 1404 1401 1406 1401 1403 1406 1408 1407 1408
1439 1432 1426 1421 1416 1411 1406 1399 1391 1384 1376 1375 1374 1377 1382 1384 1389 1396 1398 1401 1404 1406 1407 1410 1412 1411 1415 1414 1414 1414 1413 1414 1414 1416 1418 1417 1408 1406 1393 1392 1392 1390 1391 1393 1395 1394 1391
1438 1432 1425 1420 1414 1409 1404 1400 1394 1386 1382 1380 1378 1377 1381 1386 1389 1396 1396 1398 1400 1402 1406 1406 1407 1410 1411 1409 1411 1409 1409 1408 1408 1410 1413 1413 1410 1402 1385 1380 1372 1383 1375 1377 1383 1385 1383
1436 1431 1424 1418 1414 1408 1404 1401 1396 1390 1387 1384 1382 1380 1380 1383 1386 1390 1392 1397 1398 1401 1404 1405 1406 1408 1407 1406 1406 1404 1404 1402 1403 1400 1400 1404 1407 1402 1389 1380 1362 1359 1359 1360 1367 1370 1374
1434 1429 1424 1418 1412 1408 1403 1399 1397 1393 1388 1385 1380 1380 1378 1382 1385 1390 1392 1396 1399 1401 1404 1405 1404 1404 1405 1406 1404 1400 1399 1398 1391 1390 1391 1394 1401 1395 1385 1373 1363 1358 1356 1361 1367 1364 1364
1432 1428 1423 1418 1413 1408 1403 1398 1394 1389 1386 1382 1378 1379 1379 1379 1382 1384 1391 1395 1397 1400 1403 1401 1401 1401 1403 1404 1402 1396 1401 1394 1397 1389 1392 1395 1395 1398 1386 1380 1373 1364 1359 1359 1362 1363 1350
1430 1425 1421 1416 1411 1407 1403 1399 1394 1389 1384 1382 1380 1380 1377 1377 1379 1384 1388 1392 1395 1397 1400 1400 1400 1401 1402 1400 1397 1395 1395 1393 1398 1390 1389 1392 1395 1392 1387 1378 1375 1365 1362 1363 1364 1358 1349
1428 1423 1418 1414 1410 1406 1401 1397 1393 1390 1387 1384 1381 1379 1379 1379 1381 1384 1386 1389 1392 1394 1396 1398 1400 1397 1397 1395 1394 1391 1393 1394 1393 1388 1387 1387 1387 1387 1389 1384 1379 1365 1368 1367 1360 1353 1352
1427 1422 1417 1413 1408 1404 1402 1398 1394 1392 1388 1383 1379 1377 1378 1381 1382 1383 1384 1387 1389 1390 1392 1393 1394 1394 1393 1390 1391 1388 1389 1394 1390 1389 1382 1386 1379 1379 1381 1376 1366 1365 1363 1360 1357 1354 1353